This is the latest recevied weather packets stored in our database for station/object W0AVQ. If no packets are shown the sender has not sent any weather packets the latest 10 day(s).
| Time | Temp. | Humidity | Pressure | Rain* | Wind** | Luminosity | Snow |
|---|---|---|---|---|---|---|---|
| 1777727167 | 10.56° C | 99% | 1019.3 hPa | 0 mm | - | 65 W/m² | - |
| 1777726865 | 10.56° C | 99% | 1019.4 hPa | 0 mm | - | 49 W/m² | - |
| 1777726560 | 10.56° C | 99% | 1019.5 hPa | 0 mm | - | 58 W/m² | - |
| 1777726258 | 10° C | 99% | 1019.3 hPa | 0 mm | - | 83 W/m² | - |
| 1777725954 | 10.56° C | 99% | 1019.4 hPa | 0 mm | - | 60 W/m² | - |
| 1777725652 | 10.56° C | 99% | 1019.4 hPa | 0 mm | - | 52 W/m² | - |
| 1777725350 | 10° C | 99% | 1019.3 hPa | 0 mm | - | 78 W/m² | - |
| 1777725046 | 10.56° C | 99% | 1019.3 hPa | 0 mm | - | 60 W/m² | - |
| 1777724743 | 10.56° C | 99% | 1019.4 hPa | 0 mm | - | 51 W/m² | - |
| 1777724440 | 10° C | 99% | 1019.2 hPa | 0 mm | - | 55 W/m² | - |
| 1777724138 | 9.44° C | 99% | 1019.1 hPa | 0 mm | - | 58 W/m² | - |
| 1777723835 | 8.33° C | 99% | 1019.1 hPa | 0 mm | - | 47 W/m² | - |
| 1777723531 | 8.33° C | 99% | 1019.1 hPa | 0 mm | - | 27 W/m² | - |
| 1777723228 | 7.78° C | 99% | 1019 hPa | 0 mm | - | 29 W/m² | - |
| 1777722926 | 7.22° C | 99% | 1019 hPa | 0 mm | - | 33 W/m² | - |
| 1777722622 | 6.67° C | 99% | 1019 hPa | 0 mm | - | 26 W/m² | - |
| 1777722319 | 6.11° C | 99% | 1018.7 hPa | 0 mm | - | 19 W/m² | - |
| 1777722015 | 5.56° C | 99% | 1018.9 hPa | 0 mm | - | 19 W/m² | - |
| 1777721713 | 5.56° C | 99% | 1018.6 hPa | 0 mm | - | 17 W/m² | - |
| 1777721412 | 5.56° C | 99% | 1018.5 hPa | 0 mm | - | 11 W/m² | - |
| 1777721109 | 5° C | 99% | 1018.8 hPa | 0 mm | - | 9 W/m² | - |
| 1777720806 | 5° C | 99% | 1018.6 hPa | 0 mm | - | 8 W/m² | - |
| 1777720504 | 5.56° C | 99% | 1018.7 hPa | 0 mm | - | 4 W/m² | - |
| 1777720201 | 5.56° C | 99% | 1018.6 hPa | 0 mm | - | 3 W/m² | - |
| 1777719898 | 5° C | 99% | 1018.6 hPa | 0 mm | - | 0 W/m² | - |
* Rain latest hour (hover to see other rain measurements)
** Current wind speed in m/s (hover to see current wind gust speed)